| time (UTC) | temp F | wind direction | speed MPH | gust MPH | rain 1hr in | rain 24hr in | rain mn in | humidity % | barometer mb |
| 20260507011421 | 77 | 13 | 1.0 | 12.0 | 0.00 | 0.00 | 0.00 | 64 | 948.8 |
| 20260507010920 | 77 | 143 | 0.0 | 12.0 | 0.00 | 0.00 | 0.00 | 67 | 949.1 |
| 20260507005903 | 77 | 53 | 1.0 | 12.0 | 0.00 | 0.00 | 0.00 | 64 | 949.0 |
| 20260507005402 | 78 | 81 | 3.0 | 12.0 | 0.00 | 0.00 | 0.00 | 62 | 949.1 |
| 20260507004901 | 78 | 87 | 1.0 | 12.0 | 0.00 | 0.00 | 0.00 | 63 | 948.9 |
| 20260507004400 | 78 | 90 | 3.0 | 12.0 | 0.00 | 0.00 | 0.00 | 63 | 949.0 |
| 20260507003859 | 78 | 76 | 0.0 | 12.0 | 0.00 | 0.00 | 0.00 | 66 | 949.0 |
| 20260507003358 | 78 | 60 | 1.0 | 12.0 | 0.00 | 0.00 | 0.00 | 63 | 949.3 |
| 20260507002857 | 78 | 83 | 3.0 | 12.0 | 0.00 | 0.00 | 0.00 | 64 | 949.2 |
| 20260507002356 | 77 | 110 | 3.0 | 11.0 | 0.00 | 0.00 | 0.00 | 67 | 949.0 |
| 20260507001855 | 77 | 96 | 3.0 | 11.0 | 0.00 | 0.00 | 0.00 | 64 | 949.0 |
| 20260507000838 | 77 | 105 | 3.0 | 11.0 | 0.00 | 0.00 | 0.00 | 64 | 949.4 |
| 20260507000337 | 78 | 107 | 4.0 | 11.0 | 0.00 | 0.00 | 0.00 | 64 | 949.4 |
| 20260506235836 | 78 | 127 | 4.0 | 11.0 | 0.00 | 0.00 | 0.00 | 63 | 949.4 |
| 20260506235335 | 77 | 129 | 6.0 | 12.0 | 0.00 | 0.00 | 0.00 | 66 | 949.4 |
| 20260506234834 | 75 | 142 | 2.0 | 12.0 | 0.00 | 0.00 | 0.00 | 70 | 949.5 |
| 20260506234333 | 75 | 161 | 2.0 | 12.0 | 0.00 | 0.00 | 0.00 | 76 | 949.8 |
| 20260506233832 | 75 | 298 | 0.0 | 12.0 | 0.00 | 0.00 | 0.00 | 82 | 949.5 |
| 20260506232814 | 75 | 203 | 1.0 | 12.0 | 0.00 | 0.00 | 0.00 | 82 | 949.8 |
| 20260506232313 | 75 | 233 | 2.0 | 12.0 | 0.00 | 0.00 | 0.00 | 82 | 949.8 |
| 20260506231812 | 75 | 271 | 2.0 | 12.0 | 0.00 | 0.00 | 0.00 | 83 | 950.0 |
| 20260506231311 | 74 | 238 | 3.0 | 12.0 | 0.00 | 0.00 | 0.00 | 87 | 949.9 |
| 20260506230810 | 73 | 259 | 3.0 | 12.0 | 0.00 | 0.00 | 0.00 | 87 | 950.1 |
| 20260506230309 | 73 | 277 | 3.0 | 12.0 | 0.00 | 0.00 | 0.00 | 87 | 950.2 |
| 20260506225808 | 73 | 262 | 3.0 | 12.0 | 0.00 | 0.00 | 0.00 | 87 | 950.2 |
| 20260506225307 | 73 | 271 | 3.0 | 12.0 | 0.00 | 0.00 | 0.00 | 87 | 949.9 |
| 20260506224250 | 73 | 249 | 4.0 | 12.0 | 0.00 | 0.00 | 0.00 | 86 | 950.2 |
| 20260506223749 | 73 | 261 | 6.0 | 12.0 | 0.00 | 0.00 | 0.00 | 86 | 950.1 |
| 20260506223248 | 73 | 261 | 3.0 | 12.0 | 0.00 | 0.00 | 0.00 | 85 | 949.9 |
| 20260506222747 | 73 | 255 | 2.0 | 12.0 | 0.00 | 0.00 | 0.00 | 86 | 950.1 |
| 20260506222246 | 73 | 241 | 3.0 | 12.0 | 0.00 | 0.00 | 0.00 | 85 | 950.1 |
| 20260506221745 | 73 | 218 | 2.0 | 12.0 | 0.00 | 0.00 | 0.00 | 86 | 950.1 |
| 20260506221244 | 73 | 272 | 3.0 | 12.0 | 0.00 | 0.00 | 0.00 | 87 | 950.1 |
| 20260506220742 | 72 | 262 | 5.0 | 12.0 | 0.00 | 0.00 | 0.00 | 87 | 949.9 |
| 20260506214653 | 73 | 235 | 5.0 | 12.0 | 0.00 | 0.00 | 0.00 | 86 | 950.6 |
| 20260506214152 | 73 | 265 | 8.0 | 12.0 | 0.00 | 0.00 | 0.00 | 84 | 950.8 |
| 20260506213135 | 74 | 290 | 3.0 | 12.0 | 0.00 | 0.00 | 0.00 | 82 | 950.7 |
| 20260506212634 | 75 | 258 | 5.0 | 12.0 | 0.00 | 0.00 | 0.00 | 81 | 950.6 |
| 20260506212133 | 76 | 237 | 4.0 | 11.0 | 0.00 | 0.00 | 0.00 | 80 | 951.0 |
| 20260506211632 | 76 | 211 | 2.0 | 11.0 | 0.00 | 0.00 | 0.00 | 79 | 950.6 |
| 20260506205543 | 77 | 67 | 2.0 | 11.0 | 0.00 | 0.00 | 0.00 | 69 | 950.5 |
| 20260506205042 | 76 | 110 | 6.0 | 11.0 | 0.00 | 0.00 | 0.00 | 69 | 950.5 |
| 20260506204541 | 77 | 106 | 4.0 | 11.0 | 0.00 | 0.00 | 0.00 | 70 | 950.8 |
| 20260506203524 | 76 | 104 | 4.0 | 11.0 | 0.00 | 0.00 | 0.00 | 67 | 950.7 |
| 20260506203023 | 76 | 99 | 3.0 | 11.0 | 0.00 | 0.00 | 0.00 | 69 | 950.6 |
| 20260506202523 | 76 | 111 | 5.0 | 11.0 | 0.00 | 0.00 | 0.00 | 68 | 950.8 |
| 20260506202021 | 76 | 99 | 4.0 | 11.0 | 0.00 | 0.00 | 0.00 | 72 | 950.6 |
| 20260506201519 | 76 | 44 | 1.0 | 11.0 | 0.00 | 0.00 | 0.00 | 72 | 950.6 |
| 20260506201018 | 75 | 61 | 3.0 | 11.0 | 0.00 | 0.00 | 0.00 | 70 | 950.7 |
| 20260506200517 | 75 | 101 | 6.0 | 11.0 | 0.00 | 0.00 | 0.00 | 69 | 950.6 |
| 20260506200016 | 75 | 98 | 6.0 | 11.0 | 0.00 | 0.00 | 0.00 | 70 | 950.4 |
| 20260506195515 | 75 | 98 | 5.0 | 11.0 | 0.00 | 0.00 | 0.00 | 70 | 950.4 |
| 20260506195014 | 75 | 94 | 4.0 | 11.0 | 0.00 | 0.00 | 0.00 | 74 | 950.9 |
| 20260506194513 | 73 | 159 | 1.0 | 11.0 | 0.00 | 0.00 | 0.00 | 76 | 950.7 |
| 20260506194012 | 73 | 298 | 0.0 | 11.0 | 0.00 | 0.00 | 0.00 | 76 | 950.9 |
| 20260506193511 | 73 | 298 | 0.0 | 11.0 | 0.00 | 0.00 | 0.00 | 78 | 950.8 |
| 20260506193010 | 73 | 298 | 0.0 | 11.0 | 0.00 | 0.00 | 0.00 | 76 | 951.1 |
| 20260506192509 | 73 | 298 | 0.0 | 11.0 | 0.00 | 0.00 | 0.00 | 77 | 951.0 |
| 20260506192008 | 72 | 298 | 0.0 | 11.0 | 0.00 | 0.00 | 0.00 | 77 | 951.1 |
| 20260506191507 | 72 | 298 | 0.0 | 11.0 | 0.00 | 0.00 | 0.00 | 76 | 951.0 |
| 20260506191006 | 73 | 298 | 0.0 | 11.0 | 0.00 | 0.00 | 0.00 | 77 | 950.8 |
| 20260506190505 | 73 | 298 | 0.0 | 11.0 | 0.00 | 0.00 | 0.00 | 77 | 950.9 |
| 20260506190005 | 73 | 285 | 0.0 | 11.0 | 0.00 | 0.00 | 0.00 | 76 | 950.7 |
| 20260506185504 | 73 | 321 | 1.0 | 11.0 | 0.00 | 0.00 | 0.00 | 76 | 950.8 |
| 20260506185002 | 73 | 280 | 1.0 | 11.0 | 0.00 | 0.00 | 0.00 | 77 | 951.0 |
| 20260506184501 | 73 | 240 | 1.0 | 11.0 | 0.00 | 0.00 | 0.00 | 79 | 950.9 |
| 20260506184000 | 72 | 235 | 3.0 | 11.0 | 0.00 | 0.00 | 0.00 | 78 | 951.2 |
| 20260506182428 | 73 | 122 | 2.0 | 11.0 | 0.00 | 0.00 | 0.00 | 80 | 950.5 |
| 20260506181926 | 72 | 116 | 4.0 | 11.0 | 0.00 | 0.00 | 0.00 | 78 | 950.7 |
| 20260506180909 | 72 | 136 | 2.0 | 11.0 | 0.00 | 0.00 | 0.00 | 82 | 950.4 |
| 20260506180408 | 72 | 137 | 4.0 | 11.0 | 0.00 | 0.00 | 0.00 | 81 | 950.5 |
| 20260506175351 | 71 | 81 | 2.0 | 11.0 | 0.00 | 0.00 | 0.00 | 83 | 950.2 |
| 20260506174335 | 69 | 87 | 0.0 | 11.0 | 0.00 | 0.00 | 0.00 | 87 | 950.1 |
| 20260506173834 | 69 | 39 | 0.0 | 11.0 | 0.00 | 0.00 | 0.00 | 89 | 949.8 |
| 20260506173333 | 68 | 82 | 0.0 | 11.0 | 0.00 | 0.00 | 0.00 | 92 | 949.8 |
| 20260506172831 | 67 | 63 | 0.0 | 11.0 | 0.00 | 0.00 | 0.00 | 92 | 949.9 |
| 20260506172331 | 66 | 31 | 0.0 | 11.0 | 0.00 | 0.00 | 0.00 | 93 | 949.7 |
| 20260506171313 | 65 | 31 | 0.0 | 11.0 | 0.00 | 0.00 | 0.00 | 91 | 949.5 |
| 20260506170812 | 64 | 21 | 1.0 | 11.0 | 0.00 | 0.00 | 0.00 | 90 | 949.2 |
| 20260506165755 | 63 | 30 | 1.0 | 11.0 | 0.00 | 0.00 | 0.00 | 90 | 949.5 |
| 20260506165255 | 63 | 29 | 1.0 | 11.0 | 0.00 | 0.00 | 0.00 | 91 | 949.2 |
| 20260506164753 | 63 | 4 | 0.0 | 11.0 | 0.00 | 0.00 | 0.00 | 92 | 949.1 |
| 20260506164251 | 62 | 4 | 0.0 | 11.0 | 0.00 | 0.00 | 0.00 | 91 | 949.4 |
| 20260506163750 | 62 | 4 | 0.0 | 11.0 | 0.00 | 0.00 | 0.00 | 90 | 949.1 |
| 20260506163249 | 62 | 4 | 1.0 | 11.0 | 0.00 | 0.00 | 0.00 | 90 | 949.2 |
| 20260506162749 | 62 | 6 | 1.0 | 11.0 | 0.00 | 0.00 | 0.00 | 90 | 949.0 |
| 20260506162248 | 61 | 3 | 1.0 | 11.0 | 0.00 | 0.00 | 0.00 | 91 | 948.9 |
| 20260506161747 | 61 | 0 | 1.0 | 11.0 | 0.00 | 0.00 | 0.00 | 91 | 948.8 |
| 20260506160729 | 61 | 7 | 1.0 | 11.0 | 0.00 | 0.00 | 0.00 | 93 | 949.0 |
| 20260506155713 | 60 | 18 | 0.0 | 11.0 | 0.00 | 0.00 | 0.00 | 92 | 948.6 |
| 20260506155212 | 61 | 13 | 2.0 | 11.0 | 0.00 | 0.00 | 0.00 | 93 | 948.5 |
| 20260506154154 | 61 | 13 | 2.0 | 11.0 | 0.00 | 0.00 | 0.00 | 92 | 948.5 |
| 20260506153653 | 61 | 0 | 2.0 | 11.0 | 0.00 | 0.00 | 0.00 | 92 | 948.4 |
| 20260506153153 | 61 | 1 | 2.0 | 11.0 | 0.00 | 0.00 | 0.00 | 92 | 948.5 |
| 20260506152651 | 61 | 1 | 2.0 | 11.0 | 0.00 | 0.00 | 0.00 | 92 | 948.8 |
| 20260506152150 | 61 | 6 | 2.0 | 11.0 | 0.00 | 0.00 | 0.00 | 92 | 948.6 |
| 20260506151648 | 61 | 14 | 2.0 | 11.0 | 0.00 | 0.00 | 0.00 | 92 | 948.4 |
| 20260506151147 | 61 | 13 | 2.0 | 11.0 | 0.00 | 0.00 | 0.00 | 92 | 948.5 |
| 20260506150646 | 61 | 0 | 1.0 | 11.0 | 0.00 | 0.00 | 0.00 | 93 | 949.1 |
| 20260506150145 | 61 | 0 | 2.0 | 11.0 | 0.00 | 0.00 | 0.00 | 93 | 949.0 |
| 20260506144612 | 61 | 9 | 2.0 | 11.0 | 0.00 | 0.00 | 0.00 | 91 | 948.3 |
| 20260506144112 | 61 | 9 | 2.0 | 11.0 | 0.00 | 0.00 | 0.00 | 91 | 948.5 |
| 20260506143614 | 61 | 9 | 2.0 | 11.0 | 0.00 | 0.00 | 0.00 | 92 | 948.2 |
| 20260506143109 | 61 | 13 | 2.0 | 11.0 | 0.00 | 0.00 | 0.00 | 91 | 948.4 |
| 20260506142608 | 61 | 14 | 2.0 | 11.0 | 0.00 | 0.00 | 0.00 | 93 | 948.4 |
| 20260506142107 | 61 | 13 | 2.0 | 11.0 | 0.00 | 0.00 | 0.00 | 92 | 947.9 |
| 20260506141607 | 61 | 18 | 2.0 | 11.0 | 0.00 | 0.00 | 0.00 | 92 | 948.6 |
| 20260506141106 | 61 | 12 | 1.0 | 11.0 | 0.00 | 0.00 | 0.00 | 93 | 948.1 |
| 20260506140604 | 61 | 15 | 1.0 | 11.0 | 0.00 | 0.00 | 0.00 | 93 | 948.2 |
| 20260506135602 | 62 | 16 | 2.0 | 11.0 | 0.00 | 0.00 | 0.00 | 94 | 948.5 |
| 20260506135101 | 62 | 16 | 2.0 | 11.0 | 0.00 | 0.00 | 0.00 | 94 | 948.3 |
| 20260506134600 | 62 | 15 | 2.0 | 11.0 | 0.00 | 0.00 | 0.00 | 94 | 948.2 |
| 20260506134059 | 62 | 24 | 1.0 | 11.0 | 0.00 | 0.00 | 0.00 | 95 | 948.4 |
| 20260506133558 | 62 | 38 | 2.0 | 11.0 | 0.00 | 0.00 | 0.00 | 95 | 948.3 |
| 20260506133056 | 61 | 27 | 2.0 | 11.0 | 0.00 | 0.00 | 0.00 | 95 | 948.5 |
| 20260506132555 | 61 | 30 | 2.0 | 11.0 | 0.00 | 0.00 | 0.00 | 95 | 948.3 |
| 20260506131538 | 61 | 13 | 2.0 | 11.0 | 0.00 | 0.00 | 0.00 | 94 | 948.8 |
| 20260506130521 | 61 | 2 | 1.0 | 11.0 | 0.00 | 0.00 | 0.00 | 94 | 948.4 |
| 20260506130020 | 61 | 0 | 0.0 | 11.0 | 0.00 | 0.00 | 0.00 | 95 | 948.8 |
| 20260506125519 | 61 | 0 | 0.0 | 11.0 | 0.00 | 0.00 | 0.00 | 95 | 948.7 |
| 20260506125018 | 61 | 0 | 1.0 | 11.0 | 0.00 | 0.00 | 0.00 | 94 | 948.8 |
| 20260506124001 | 61 | 5 | 1.0 | 11.0 | 0.00 | 0.00 | 0.00 | 94 | 948.4 |
| 20260506123500 | 61 | 30 | 1.0 | 11.0 | 0.00 | 0.00 | 0.00 | 94 | 948.6 |
| 20260506122959 | 61 | 30 | 0.0 | 11.0 | 0.00 | 0.00 | 0.00 | 94 | 948.7 |
| 20260506122458 | 61 | 30 | 0.0 | 11.0 | 0.00 | 0.00 | 0.00 | 94 | 948.6 |
| 20260506121957 | 61 | 30 | 0.0 | 11.0 | 0.00 | 0.00 | 0.00 | 94 | 948.6 |
| 20260506121456 | 61 | 30 | 0.0 | 11.0 | 0.00 | 0.00 | 0.00 | 94 | 948.5 |
| 20260506120955 | 61 | 30 | 0.0 | 11.0 | 0.00 | 0.00 | 0.00 | 94 | 948.5 |
| 20260506120454 | 62 | 30 | 0.0 | 11.0 | 0.00 | 0.00 | 0.00 | 94 | 948.8 |
| 20260506115953 | 62 | 31 | 1.0 | 11.0 | 0.00 | 0.00 | 0.00 | 94 | 948.8 |
| 20260506114935 | 62 | 24 | 0.0 | 11.0 | 0.00 | 0.00 | 0.00 | 95 | 948.8 |
| 20260506114434 | 61 | 28 | 1.0 | 11.0 | 0.00 | 0.00 | 0.00 | 94 | 948.7 |
| 20260506113933 | 61 | 35 | 0.0 | 11.0 | 0.00 | 0.00 | 0.00 | 94 | 948.8 |
| 20260506113432 | 61 | 35 | 0.0 | 11.0 | 0.00 | 0.00 | 0.00 | 94 | 949.1 |
| 20260506112931 | 62 | 43 | 0.0 | 11.0 | 0.00 | 0.00 | 0.00 | 94 | 949.3 |
| 20260506112430 | 62 | 38 | 1.0 | 11.0 | 0.00 | 0.00 | 0.00 | 94 | 949.0 |
| 20260506111929 | 62 | 42 | 1.0 | 11.0 | 0.00 | 0.00 | 0.00 | 95 | 949.3 |
| 20260506111427 | 62 | 33 | 1.0 | 11.0 | 0.00 | 0.00 | 0.00 | 95 | 949.2 |
| 20260506110410 | 62 | 296 | 0.0 | 11.0 | 0.00 | 0.00 | 0.00 | 95 | 949.7 |
| 20260506105909 | 62 | 296 | 0.0 | 11.0 | 0.00 | 0.00 | 0.00 | 96 | 949.7 |
| 20260506105408 | 62 | 296 | 0.0 | 11.0 | 0.00 | 0.00 | 0.00 | 96 | 950.1 |
| 20260506104907 | 62 | 296 | 0.0 | 11.0 | 0.00 | 0.00 | 0.00 | 96 | 949.5 |
| 20260506104406 | 62 | 296 | 0.0 | 11.0 | 0.00 | 0.00 | 0.00 | 96 | 949.9 |
| 20260506103349 | 63 | 296 | 0.0 | 11.0 | 0.00 | 0.00 | 0.00 | 97 | 950.0 |
| 20260506102847 | 63 | 296 | 0.0 | 11.0 | 0.00 | 0.00 | 0.00 | 97 | 950.0 |
| 20260506102346 | 64 | 296 | 0.0 | 11.0 | 0.00 | 0.00 | 0.00 | 97 | 950.2 |
| 20260506101845 | 65 | 296 | 0.0 | 11.0 | 0.00 | 0.00 | 0.00 | 98 | 950.0 |
| 20260506101344 | 66 | 296 | 0.0 | 11.0 | 0.00 | 0.00 | 0.00 | 98 | 950.2 |
| 20260506095811 | 66 | 285 | 4.0 | 11.0 | 0.00 | 0.00 | 0.00 | 98 | 950.7 |
| 20260506095310 | 67 | 281 | 3.0 | 11.0 | 0.00 | 0.00 | 0.00 | 98 | 950.6 |
| 20260506094809 | 67 | 255 | 3.0 | 11.0 | 0.00 | 0.00 | 0.00 | 98 | 950.7 |
| 20260506094307 | 67 | 268 | 3.0 | 11.0 | 0.00 | 0.00 | 0.00 | 98 | 950.7 |
| 20260506093806 | 67 | 230 | 0.0 | 11.0 | 0.00 | 0.00 | 0.00 | 98 | 950.7 |
| 20260506093305 | 67 | 233 | 0.0 | 11.0 | 0.00 | 0.00 | 0.00 | 98 | 950.6 |
| 20260506092804 | 66 | 237 | 0.0 | 11.0 | 0.00 | 0.00 | 0.00 | 98 | 950.6 |
| 20260506092305 | 66 | 268 | 0.0 | 11.0 | 0.00 | 0.00 | 0.00 | 97 | 950.6 |
| 20260506091801 | 66 | 312 | 0.0 | 11.0 | 0.00 | 0.00 | 0.00 | 97 | 950.7 |
| 20260506090743 | 65 | 32 | 0.0 | 11.0 | 0.00 | 0.00 | 0.00 | 97 | 950.5 |
| 20260506090242 | 65 | 278 | 0.0 | 11.0 | 0.00 | 0.00 | 0.00 | 97 | 950.6 |
| 20260506085741 | 65 | 278 | 0.0 | 11.0 | 0.00 | 0.00 | 0.00 | 97 | 950.7 |
| 20260506085240 | 65 | 278 | 0.0 | 11.0 | 0.00 | 0.00 | 0.00 | 97 | 950.7 |
| 20260506084739 | 64 | 278 | 0.0 | 11.0 | 0.00 | 0.00 | 0.00 | 97 | 950.6 |
| 20260506084237 | 64 | 278 | 0.0 | 11.0 | 0.00 | 0.00 | 0.00 | 97 | 950.6 |
| 20260506083736 | 64 | 278 | 0.0 | 11.0 | 0.00 | 0.00 | 0.00 | 97 | 950.8 |
| 20260506083235 | 63 | 278 | 0.0 | 11.0 | 0.00 | 0.00 | 0.00 | 96 | 950.6 |
| 20260506082734 | 63 | 278 | 0.0 | 11.0 | 0.00 | 0.00 | 0.00 | 96 | 950.5 |
| 20260506082233 | 63 | 278 | 0.0 | 11.0 | 0.00 | 0.00 | 0.00 | 96 | 950.6 |
| 20260506081732 | 63 | 278 | 0.0 | 11.0 | 0.00 | 0.00 | 0.00 | 95 | 950.5 |
| 20260506081231 | 64 | 278 | 0.0 | 11.0 | 0.00 | 0.00 | 0.00 | 96 | 950.4 |
| 20260506080730 | 64 | 278 | 0.0 | 11.0 | 0.00 | 0.00 | 0.00 | 95 | 950.1 |
| 20260506080229 | 64 | 278 | 0.0 | 11.0 | 0.00 | 0.00 | 0.00 | 95 | 950.5 |
| 20260506073138 | 66 | 278 | 0.0 | 11.0 | 0.00 | 0.00 | 0.00 | 96 | 950.1 |
| 20260506072636 | 66 | 278 | 0.0 | 11.0 | 0.00 | 0.00 | 0.00 | 97 | 950.4 |
| 20260506072135 | 66 | 278 | 0.0 | 11.0 | 0.00 | 0.00 | 0.00 | 97 | 950.4 |
| 20260506071634 | 67 | 278 | 0.0 | 11.0 | 0.00 | 0.00 | 0.00 | 97 | 950.6 |
| 20260506071133 | 67 | 278 | 1.0 | 11.0 | 0.00 | 0.00 | 0.00 | 97 | 950.3 |
| 20260506070116 | 67 | 282 | 0.0 | 11.0 | 0.00 | 0.00 | 0.00 | 97 | 950.2 |
| 20260506061521 | 67 | 284 | 0.0 | 11.0 | 0.00 | 0.00 | 0.00 | 95 | 949.9 |
| 20260506061020 | 67 | 284 | 0.0 | 11.0 | 0.00 | 0.00 | 0.00 | 95 | 950.0 |
| 20260506060518 | 68 | 284 | 0.0 | 11.0 | 0.00 | 0.00 | 0.00 | 95 | 949.6 |
| 20260506050420 | 70 | 271 | 1.0 | 11.0 | 0.00 | 0.00 | 0.00 | 88 | 949.4 |
| 20260506044917 | 70 | 268 | 0.0 | 11.0 | 0.00 | 0.00 | 0.00 | 86 | 949.1 |
| 20260506044416 | 70 | 229 | 1.0 | 11.0 | 0.00 | 0.00 | 0.00 | 85 | 948.9 |
| 20260506042842 | 70 | 257 | 2.0 | 11.0 | 0.00 | 0.00 | 0.00 | 85 | 948.9 |
| 20260506042341 | 71 | 230 | 2.0 | 11.0 | 0.00 | 0.00 | 0.00 | 85 | 948.9 |
| 20260506041840 | 71 | 260 | 1.0 | 11.0 | 0.00 | 0.00 | 0.00 | 85 | 948.8 |
| 20260506035750 | 71 | 234 | 2.0 | 11.0 | 0.00 | 0.00 | 0.00 | 83 | 948.1 |
| 20260506034733 | 71 | 204 | 2.0 | 11.0 | 0.00 | 0.00 | 0.00 | 83 | 948.4 |
| 20260506033716 | 71 | 270 | 1.0 | 11.0 | 0.00 | 0.00 | 0.00 | 82 | 948.6 |
| 20260506033214 | 71 | 235 | 2.0 | 11.0 | 0.00 | 0.00 | 0.00 | 82 | 948.4 |
| 20260506032713 | 71 | 252 | 1.0 | 11.0 | 0.00 | 0.00 | 0.00 | 83 | 948.2 |
| 20260506032212 | 71 | 258 | 1.0 | 11.0 | 0.00 | 0.00 | 0.00 | 83 | 948.4 |
| 20260506031155 | 71 | 263 | 2.0 | 11.0 | 0.00 | 0.00 | 0.00 | 83 | 948.1 |
| 20260506030654 | 71 | 257 | 3.0 | 11.0 | 0.00 | 0.00 | 0.00 | 81 | 948.0 |
| 20260506030153 | 72 | 298 | 2.0 | 11.0 | 0.00 | 0.00 | 0.00 | 81 | 948.3 |
| 20260506025652 | 72 | 260 | 5.0 | 11.0 | 0.00 | 0.00 | 0.00 | 80 | 947.9 |
| 20260506025151 | 72 | 264 | 2.0 | 11.0 | 0.00 | 0.00 | 0.00 | 80 | 948.3 |
| 20260506024650 | 72 | 283 | 3.0 | 11.0 | 0.00 | 0.00 | 0.00 | 80 | 948.3 |
| 20260506023633 | 73 | 272 | 2.0 | 11.0 | 0.00 | 0.00 | 0.00 | 78 | 948.1 |
| 20260506023132 | 73 | 259 | 3.0 | 11.0 | 0.00 | 0.00 | 0.00 | 78 | 948.1 |
| 20260506022631 | 73 | 261 | 3.0 | 11.0 | 0.00 | 0.00 | 0.00 | 77 | 948.2 |
| 20260506022131 | 73 | 272 | 3.0 | 11.0 | 0.00 | 0.00 | 0.00 | 77 | 948.1 |
| 20260506021629 | 73 | 262 | 3.0 | 11.0 | 0.00 | 0.00 | 0.00 | 77 | 948.0 |
| 20260506021127 | 74 | 269 | 3.0 | 11.0 | 0.00 | 0.00 | 0.00 | 75 | 948.3 |
| 20260506020626 | 74 | 246 | 3.0 | 11.0 | 0.00 | 0.00 | 0.00 | 76 | 948.3 |
| 20260506020126 | 74 | 290 | 3.0 | 11.0 | 0.00 | 0.00 | 0.00 | 75 | 948.4 |
| 20260506015625 | 75 | 259 | 4.0 | 11.0 | 0.00 | 0.00 | 0.00 | 75 | 948.1 |
| 20260506014607 | 75 | 263 | 4.0 | 11.0 | 0.00 | 0.00 | 0.00 | 75 | 948.3 |
| 20260506014107 | 74 | 268 | 3.0 | 11.0 | 0.00 | 0.00 | 0.00 | 76 | 948.4 |
| 20260506013605 | 75 | 268 | 3.0 | 11.0 | 0.00 | 0.00 | 0.00 | 73 | 948.4 |
| 20260506013105 | 75 | 274 | 2.0 | 11.0 | 0.00 | 0.00 | 0.00 | 75 | 948.3 |
| 20260506012048 | 75 | 218 | 3.0 | 11.0 | 0.00 | 0.00 | 0.00 | 73 | 948.5 |